EA7RX-4 Weather Reports


time (UTC)temp
C
wind
direction
speed
KPH
gust
KPH
rain 1hr
cm
rain 24hr
cm
rain mn
cm
humidity
%
barometer
mb
20260506234003 11 98 12.9 25.7 0.00 0.00 0.00 58 1009.0
20260506233003 11 83 9.7 20.9 0.00 0.00 0.00 56 1009.0
20260506232003 11 87 8.0 16.1 0.00 0.00 0.00 53 1008.8
20260506231003 12 71 8.0 16.1 0.00 0.00 0.00 51 1008.9
20260506230003 12 80 8.0 14.5 0.00 0.00 0.00 49 1009.0
20260506225003 12 78 6.4 14.5 0.00 0.00 0.00 47 1009.1
20260506224003 12 76 8.0 16.1 0.00 0.00 0.00 46 1008.9
20260506223003 12 82 6.4 16.1 0.00 0.00 0.00 44 1009.0
20260506222003 13 73 4.8 9.7 0.00 0.00 0.00 43 1009.0
20260506221003 13 64 3.2 11.3 0.00 0.00 0.00 41 1009.0
20260506220003 13 80 4.8 6.4 0.00 0.00 0.00 42 1009.0
20260506215003 14 60 3.2 6.4 0.00 0.00 0.00 38 1009.2
20260506214003 14 55 4.8 9.7 0.00 0.00 0.00 38 1009.1
20260506213003 14 55 4.8 9.7 0.00 0.00 0.00 38 1009.1
20260506212003 14 68 3.2 6.4 0.00 0.00 0.00 39 1009.0
20260506211003 14 65 3.2 6.4 0.00 0.00 0.00 38 1009.1
20260506210003 14 61 3.2 6.4 0.00 0.00 0.00 38 1009.1
20260506205003 14 75 3.2 4.8 0.00 0.00 0.00 38 1009.2
20260506204003 14 76 1.6 4.8 0.00 0.00 0.00 38 1009.1
20260506203003 14 92 1.6 1.6 0.00 0.00 0.00 38 1008.9
20260506202003 15 151 0.0 1.6 0.00 0.00 0.00 39 1008.9
20260506201003 15 0 0.0 0.0 0.00 0.00 0.00 38 1009.0
20260506200003 15 180 0.0 1.6 0.00 0.00 0.00 36 1008.8
20260506195003 15 180 1.6 1.6 0.00 0.00 0.00 35 1008.9
20260506194003 15 174 0.0 1.6 0.00 0.00 0.00 35 1008.6
20260506193003 15 187 0.0 1.6 0.00 0.00 0.00 36 1008.6
20260506192003 16 216 1.6 3.2 0.00 0.00 0.00 35 1008.4
20260506191003 16 298 1.6 3.2 0.00 0.00 0.00 34 1008.6
20260506190003 17 273 1.6 3.2 0.00 0.00 0.00 33 1008.5
20260506185003 17 122 1.6 3.2 0.00 0.00 0.00 32 1008.6
20260506184003 17 358 3.2 9.7 0.00 0.00 0.00 32 1008.5
20260506183003 17 258 3.2 6.4 0.00 0.00 0.00 32 1008.4
20260506182003 17 99 1.6 4.8 0.00 0.00 0.00 32 1008.3
20260506181003 17 262 3.2 9.7 0.00 0.00 0.00 32 1008.3
20260506180003 17 261 6.4 11.3 0.00 0.00 0.00 32 1008.5
20260506175003 17 227 4.8 14.5 0.00 0.00 0.00 32 1008.5
20260506174003 17 219 4.8 9.7 0.00 0.00 0.00 32 1008.5
20260506173003 17 206 4.8 9.7 0.00 0.00 0.00 32 1008.6
20260506172003 18 257 3.2 9.7 0.00 0.00 0.00 32 1008.4
20260506171003 17 254 6.4 14.5 0.00 0.00 0.00 31 1008.6
20260506170003 17 264 4.8 11.3 0.00 0.00 0.00 32 1008.8
20260506165003 17 346 6.4 11.3 0.00 0.00 0.00 31 1008.8
20260506164003 17 287 8.0 12.9 0.00 0.00 0.00 32 1008.8
20260506163003 17 293 8.0 16.1 0.00 0.00 0.00 32 1008.6
20260506162003 17 316 8.0 16.1 0.00 0.00 0.00 32 1008.5
20260506161003 17 293 4.8 12.9 0.00 0.00 0.00 32 1008.9
20260506160003 17 29 4.8 16.1 0.00 0.00 0.00 32 1008.9
20260506155003 17 351 6.4 12.9 0.00 0.00 0.00 33 1008.6
20260506154003 17 55 4.8 11.3 0.00 0.00 0.00 33 1009.2
20260506153003 17 333 4.8 17.7 0.00 0.00 0.00 34 1009.1
20260506152003 17 18 6.4 17.7 0.00 0.00 0.00 34 1009.2
20260506151003 16 303 4.8 14.5 0.00 0.00 0.00 35 1009.2
20260506150003 16 316 6.4 14.5 0.00 0.00 0.00 35 1009.4
20260506145003 17 289 4.8 12.9 0.00 0.00 0.00 34 1009.4
20260506144003 17 336 8.0 14.5 0.00 0.00 0.00 35 1009.6
20260506143003 17 292 6.4 16.1 0.00 0.00 0.00 35 1009.5
20260506142003 17 237 4.8 12.9 0.00 0.00 0.00 34 1010.0
20260506141003 16 345 4.8 9.7 0.00 0.00 0.00 35 1009.8
20260506140003 17 185 3.2 14.5 0.00 0.00 0.00 36 1010.0
20260506135003 16 217 9.7 16.1 0.00 0.00 0.00 38 1010.2
20260506134003 15 316 4.8 12.9 0.00 0.00 0.00 39 1010.2
20260506133003 16 129 3.2 9.7 0.00 0.00 0.00 39 1010.3
20260506132003 15 75 6.4 16.1 0.00 0.00 0.00 41 1010.3
20260506131003 15 72 6.4 12.9 0.00 0.00 0.00 40 1010.5
20260506130003 15 66 6.4 17.7 0.00 0.00 0.00 43 1010.4
20260506125003 15 210 3.2 9.7 0.00 0.00 0.00 41 1010.4
20260506124003 15 94 3.2 9.7 0.00 0.00 0.00 41 1010.6
20260506123003 15 80 4.8 11.3 0.00 0.00 0.00 40 1010.6
20260506122003 15 232 4.8 14.5 0.00 0.00 0.00 42 1010.8
20260506121003 14 276 4.8 11.3 0.00 0.00 0.00 44 1010.9
20260506120003 14 46 1.6 11.3 0.00 0.00 0.00 44 1011.2
20260506115003 15 273 3.2 9.7 0.00 0.00 0.00 43 1011.2
20260506114003 14 6 4.8 22.5 0.00 0.00 0.00 44 1010.8
20260506113003 13 261 8.0 16.1 0.00 0.00 0.00 47 1011.0
20260506112003 13 288 9.7 17.7 0.00 0.00 0.00 45 1011.2
20260506111003 13 269 4.8 11.3 0.00 0.00 0.00 47 1011.2
20260506110003 13 94 3.2 9.7 0.00 0.00 0.00 48 1011.3
20260506105003 13 38 8.0 20.9 0.00 0.00 0.00 48 1011.3
20260506104003 13 9 6.4 20.9 0.00 0.00 0.00 49 1011.3
20260506103003 12 22 6.4 14.5 0.00 0.00 0.00 51 1011.3
20260506102003 13 37 4.8 12.9 0.00 0.00 0.00 51 1011.3
20260506101003 13 61 6.4 14.5 0.00 0.00 0.00 52 1011.4
20260506100003 12 22 6.4 17.7 0.00 0.00 0.00 55 1011.6
20260506095003 12 51 9.7 16.1 0.00 0.00 0.00 55 1011.6
20260506094003 12 39 4.8 16.1 0.00 0.00 0.00 55 1011.5
20260506093003 11 35 8.0 14.5 0.00 0.00 0.00 58 1011.5
20260506092003 11 39 8.0 17.7 0.00 0.00 0.00 59 1011.6
20260506091003 11 19 6.4 14.5 0.00 0.00 0.00 60 1011.4
20260506090003 11 4 8.0 17.7 0.00 0.00 0.00 65 1011.4
20260506085003 11 6 8.0 17.7 0.00 0.00 0.00 61 1011.5
20260506084003 11 34 6.4 14.5 0.00 0.00 0.00 63 1011.3
20260506083003 11 54 6.4 16.1 0.00 0.00 0.00 60 1011.4
20260506082003 10 43 8.0 17.7 0.00 0.00 0.00 65 1011.4
20260506081003 10 40 4.8 12.9 0.00 0.00 0.00 65 1011.4
20260506073003 10 54 8.0 22.5 0.00 0.00 0.00 62 1011.2
20260506072003 10 61 8.0 17.7 0.00 0.00 0.00 63 1011.2
20260506071003 9 61 8.0 17.7 0.00 0.00 0.00 65 1010.9
20260506062003 7 74 9.7 17.7 0.00 0.00 0.00 70 1010.7
20260506061003 7 75 6.4 14.5 0.00 0.00 0.00 72 1010.7
20260506051003 6 67 9.7 14.5 0.00 0.00 0.00 76 1010.4
20260506045003 6 68 8.0 14.5 0.00 0.00 0.00 76 1010.2
20260506044003 6 70 8.0 14.5 0.00 0.00 0.00 76 1010.2
20260506043003 6 74 8.0 14.5 0.00 0.00 0.00 75 1010.4
20260506042003 6 76 6.4 14.5 0.00 0.00 0.00 75 1010.4
20260506041003 6 61 6.4 12.9 0.00 0.00 0.00 75 1010.4
20260506040003 6 67 6.4 12.9 0.00 0.00 0.00 74 1010.4
20260506035003 6 71 6.4 12.9 0.00 0.00 0.00 75 1010.5
20260506034003 6 75 8.0 12.9 0.00 0.00 0.00 75 1010.5
20260506033003 6 73 6.4 12.9 0.00 0.00 0.00 74 1010.5
20260506032003 6 68 6.4 12.9 0.00 0.00 0.00 74 1010.7
20260506031003 6 69 6.4 12.9 0.00 0.00 0.00 74 1010.6
20260506030003 6 70 8.0 12.9 0.00 0.00 0.00 74 1010.6
20260506025003 6 65 6.4 12.9 0.00 0.00 0.00 74 1010.7
20260506024003 6 72 6.4 11.3 0.00 0.00 0.00 75 1010.7
20260506023003 6 72 6.4 11.3 0.00 0.00 0.00 75 1010.6
20260506021003 7 71 4.8 11.3 0.00 0.00 0.00 73 1010.6
20260506020003 7 68 4.8 11.3 0.00 0.00 0.00 73 1011.0
20260506015003 7 64 4.8 6.4 0.00 0.00 0.00 72 1010.8
20260506014003 7 83 3.2 9.7 0.00 0.00 0.00 73 1011.0
20260506013003 7 78 4.8 12.9 0.00 0.00 0.00 73 1011.0
20260506012003 7 77 6.4 11.3 0.00 0.00 0.00 72 1011.0
20260506011003 7 79 4.8 9.7 0.00 0.00 0.00 72 1010.9
20260506010003 7 67 6.4 9.7 0.00 0.00 0.00 71 1011.0
20260506005003 7 71 4.8 11.3 0.00 0.00 0.00 72 1011.2
20260506004003 7 86 4.8 9.7 0.00 0.00 0.00 71 1011.0
20260506003003 7 74 4.8 11.3 0.00 0.00 0.00 70 1011.2
20260506002003 7 71 4.8 12.9 0.00 0.00 0.00 69 1011.3
20260506001003 7 66 4.8 12.9 0.00 0.00 0.00 70 1011.5
20260506000003 8 56 4.8 11.3 0.00 0.00 0.00 65 1011.4
20260505235003 8 50 6.4 12.9 0.00 0.00 0.00 64 1011.4